Regional Weather Roundup
Issued by NWS

Home | Current Version | Previous Version | Graphics & Text | Print | Product List | Glossary On
Versions: 1 2 3 4 5 6 7 8 9 10 11 12 13 14 15 16 17 18 19 20 21 22 23 24 25 26 27 28 29 30 31 32 33 34 35 36 37 38 39 40 41 42 43 44 45 46 47 48 49 50
284
ASUS43 KLOT 162004
RWRIL

ILLINOIS REGIONAL WEATHER ROUNDUP
NATIONAL WEATHER SERVICE CHICAGO/ROMEOVILLE IL
300 PM CDT MON OCT 16 2017

NOTE: "FAIR" INDICATES FEW OR NO CLOUDS BELOW 12,000 FEET WITH NO
SIGNIFICANT WEATHER AND/OR OBSTRUCTIONS TO VISIBILITY.

* THESE STATIONS ARE NOT UNDER NWS QUALITY CONTROL. THEY ALSO MAY NOT
  REPORT WEATHER SUCH AS PRECIPITATION OR FOG.

ILZ001-002-007-009-015-016-024-162100-
NORTHWEST ILLINOIS

CITY           SKY/WX    TMP DP  RH WIND       PRES   REMARKS
MOLINE         SUNNY     65  38  36 W12G17    30.26F
STERLING*      SUNNY     64  36  35 W13         N/A
SAVANNA*       SUNNY     64  37  36 SW8       30.24F
$$

ILZ003-004-008-010-011-017-018-162100-
NORTH CENTRAL ILLINOIS

CITY           SKY/WX    TMP DP  RH WIND       PRES   REMARKS
ROCKFORD       MOSUNNY   63  34  33 W9        30.25F
FREEPORT*      SUNNY     61  32  33 W13       30.26F
ROCHELLE*      SUNNY     62  38  41 W9G17     30.25F
DE KALB*       SUNNY     61  37  40 W14       30.25F
PERU*          SUNNY     63  34  34 W10       30.27F
$$

ILZ005-006-012>014-019>023-162100-
NORTHEAST ILLINOIS

CITY           SKY/WX    TMP DP  RH WIND       PRES   REMARKS
CHICAGO-OHARE  MOSUNNY   62  37  39 W14       30.23F
CHICAGO-MIDWAY MOSUNNY   62  38  40 W10       30.25F
AURORA         SUNNY     62  36  37 W13       30.25F
LANSING*       SUNNY     62  40  45 W12G20    30.25F
JOLIET*        SUNNY     64  36  35 SW9       30.26S
WAUKEGAN       MOSUNNY   62  38  40 VRB5      30.22F
DUPAGE AIRPORT SUNNY     62  37  39 W18G28    30.24F
KANKAKEE*      MOSUNNY   63  36  36 W3        30.27F
WHEELING       SUNNY     63  36  36 W9        30.25F
MORRIS*        SUNNY     63  36  36 W9G17     30.25F
NORTHERLY ISL    N/A     61  33  35 W5          N/A
$$

LMZ740>746-162100-
SOUTHERN LAKE MICHIGAN

STATION/POSITION SKY/WX   TEMP    WIND        PRES    VSBY  WAVE
                          AIR SEA DIR/SP/G                  HT/PER
                          (F)     (DEG/KT/KT) (MB)    (MI)  (FT/S)
SOUTHERN BUOY              55 62  230/ 10/ 12 1025.0          2/ 6
WILMETTE HARBOR            59 58  260/  8/ 12   N/A           2/ 6
HARRISON CRIB              60     270/ 11/ 15   N/A
BURNHAM HARBOR             61     250/  5/ 13   N/A
CALUMET HARBOR             62     240/  6/ 10 1023.6F
BURNS HARBOR               59     260/  9/ 11 1025.1F
MICHIGAN CITY              56     230/  6/  7   N/A
MICHIGAN CITY 6N           57 58  240/  6/  8   N/A           2/ 6
ST. JOSEPH                 55 55  210/  4/  6 1025.3F         3/ 4
$$

ILZ025>027-034>036-040-047-049-050-058-095>099-162100-
WEST-CENTRAL ILLINOIS

CITY           SKY/WX    TMP DP  RH WIND       PRES   REMARKS
QUINCY         SUNNY     65  34  31 W6        30.30F
GALESBURG*     SUNNY     64  37  37 W8        30.28F
MACOMB*        SUNNY     65  34  30 SW8       30.31F
JACKSONVILLE*  SUNNY     65  34  31 W7        30.30F
PITTSFIELD*    SUNNY     66  37  34 W9        30.31F
$$

ILZ028>032-037-038-041>044-048-051>054-059>061-162100-
CENTRAL ILLINOIS

CITY           SKY/WX    TMP DP  RH WIND       PRES   REMARKS
PONTIAC        SUNNY     65  37  36 W12G18    30.28F
BLOOMINGTON    SUNNY     63  37  38 W12G21    30.29F
DECATUR        SUNNY     64  35  34 W8        30.30F
PEORIA         SUNNY     65  37  35 SW8       30.28F
LACON*         SUNNY     64  34  32 W7        30.26F
LINCOLN*       SUNNY     66  37  33 W9        30.29F
SPRINGFIELD    SUNNY     67  35  30 W10G21    30.30F
TAYLORVILLE    SUNNY     66  35  32 W12       30.31F
$$

ILZ033-039-045-046-055>057-062-063-162100-
EAST-CENTRAL ILLINOIS

CITY           SKY/WX    TMP DP  RH WIND       PRES   REMARKS
CHAMPAIGN      SUNNY     65  35  33 W14       30.30F
DANVILLE*      SUNNY     61  35  36 NW6G16    30.27F
RANTOUL*       SUNNY     65  39  39 W6        30.29F
MATTOON        SUNNY     63  37  38 NW6       30.31F
PARIS*         MOSUNNY   63  38  38 W6        30.32S
$$

ILZ079-100>102-162100-
SOUTHWEST ILLINOIS

CITY           SKY/WX    TMP DP  RH WIND       PRES   REMARKS
ALTON          SUNNY     64  39  39 W6        30.33F
BELLEVILLE     SUNNY     66  35  32 SW9       30.31F
CAHOKIA*       SUNNY     67  34  29 VRB6      30.32F
SPARTA*        SUNNY     63  35  36 CALM      30.34F
$$

ILZ064>066-069>071-074>076-080>082-084>086-088>090-092>094-162100-
SOUTH-CENTRAL ILLINOIS

CITY           SKY/WX    TMP DP  RH WIND       PRES   REMARKS
CARBONDALE     SUNNY     65  37  35 NE5       30.34F
EFFINGHAM*     SUNNY     64  39  39 W8        30.34F
MARION         SUNNY     64  34  32 N6        30.34F
MT. VERNON     SUNNY     64  36  35 VRB5      30.33F
CENTRALIA*     SUNNY     65  37  36 NW3       30.32F
METROPOLIS*    SUNNY     65  36  33 N8        30.33F
$$

ILZ067-068-072-073-078-083-087-091-162100-
SOUTHEAST ILLINOIS

CITY           SKY/WX    TMP DP  RH WIND       PRES   REMARKS
LAWRENCEVILLE  SUNNY    N/A N/A N/A W6        30.32F
FLORA*         SUNNY     64  39  38 CALM      30.33F
FAIRFIELD*     SUNNY     63  33  33 CALM      30.32F
HARRISBURG*    SUNNY     63  35  34 N5        30.34F
ROBINSON*      MOSUNNY   63  36  36 N6        30.33F HAZE
CARMI*         SUNNY     64  36  35 CALM      30.32F
$$

ABBREVIATIONS USED IN REMARKS
   TC - TEMPERATURE IN CELSIUS
  WCI - WIND CHILL INDEX
   HX - HEAT INDEX
  VSB - VISIBILITY
$$





USA.gov is the U.S. government's official web portal to all federal, state and local government web resources and services.